Year,Month,Day,Hour,Minute,Value (Times are PST for temperature in C)
2010,07,13,11,11,15.30
2010,07,13,11,12,15.30
2010,07,13,11,13,15.40
2010,07,13,11,16,15.60
2010,07,13,11,17,15.80
2010,07,13,11,18,15.80
2010,07,13,11,19,15.80
2010,07,13,11,21,15.50
2010,07,13,11,22,15.50
2010,07,13,11,24,15.40
2010,07,13,11,25,15.50
2010,07,13,11,26,15.50
2010,07,13,11,28,15.40
2010,07,13,11,29,15.40
2010,07,13,11,30,15.30
2010,07,13,11,31,15.50
2010,07,13,11,32,15.70
2010,07,13,11,33,15.60
2010,07,13,11,34,15.40
2010,07,13,11,35,15.40
2010,07,13,11,36,15.40
2010,07,13,11,37,15.40
2010,07,13,11,38,15.40
2010,07,13,11,39,15.50
2010,07,13,11,40,15.60
2010,07,13,11,41,15.70
2010,07,13,11,42,15.80
2010,07,13,11,43,15.70
2010,07,13,11,44,15.60
2010,07,13,11,45,15.50
2010,07,13,11,46,15.40
2010,07,13,11,47,15.30
2010,07,13,11,48,15.30
2010,07,13,11,49,15.30
2010,07,13,11,50,15.30
2010,07,13,11,51,15.30
2010,07,13,11,52,15.30
2010,07,13,11,53,15.30
2010,07,13,11,54,15.30
2010,07,13,11,55,15.40
2010,07,13,11,56,15.50
2010,07,13,11,57,15.60
2010,07,13,11,58,15.80
2010,07,13,11,59,15.80
2010,07,13,12,00,15.70
2010,07,13,12,01,15.50
2010,07,13,12,02,15.40
2010,07,13,12,03,15.40
2010,07,13,12,04,15.40
2010,07,13,12,05,15.30
2010,07,13,12,06,15.30
2010,07,13,12,07,15.40
2010,07,13,12,08,15.50
2010,07,13,12,09,15.50
2010,07,13,12,10,15.70
2010,07,13,12,11,15.70
2010,07,13,12,12,15.70
2010,07,13,12,13,15.60
2010,07,13,12,14,15.50
2010,07,13,12,15,15.50
2010,07,13,12,16,15.60
2010,07,13,12,17,15.70
2010,07,13,12,18,15.70
2010,07,13,12,19,15.80
2010,07,13,12,20,15.80
2010,07,13,12,21,15.90
2010,07,13,12,22,16.00
2010,07,13,12,23,16.20
2010,07,13,12,24,16.40
2010,07,13,12,25,16.40
2010,07,13,12,26,16.40
2010,07,13,12,27,16.40
2010,07,13,12,28,16.40
2010,07,13,12,29,16.30
2010,07,13,12,30,16.20
2010,07,13,12,31,16.10
2010,07,13,12,32,16.10
2010,07,13,12,33,16.10
2010,07,13,12,34,16.10
2010,07,13,12,35,16.20
2010,07,13,12,36,16.40
2010,07,13,12,37,16.50
2010,07,13,12,38,16.60
2010,07,13,12,39,16.50
2010,07,13,12,40,16.50
2010,07,13,12,41,16.30
2010,07,13,12,42,16.10
2010,07,13,12,43,15.90
2010,07,13,12,44,15.90
2010,07,13,12,45,15.90
2010,07,13,12,46,16.00
2010,07,13,12,47,16.10
2010,07,13,12,48,16.10
2010,07,13,12,49,16.10
2010,07,13,12,50,16.20
2010,07,13,12,51,16.40
2010,07,13,12,52,16.40
2010,07,13,12,53,16.40
2010,07,13,12,54,16.40
2010,07,13,12,55,16.30
2010,07,13,12,56,16.20
2010,07,13,12,57,16.30
2010,07,13,12,58,16.40
2010,07,13,12,59,16.40
2010,07,13,13,00,16.40
2010,07,13,13,01,16.40
2010,07,13,13,02,16.40
2010,07,13,13,03,16.40
2010,07,13,13,04,16.20
2010,07,13,13,05,16.10
2010,07,13,13,06,16.10
2010,07,13,13,07,16.00
2010,07,13,13,08,15.90
2010,07,13,13,09,15.80
2010,07,13,13,10,15.80
2010,07,13,13,11,15.80
2010,07,13,13,12,15.90
2010,07,13,13,13,16.00
2010,07,13,13,14,16.10
2010,07,13,13,15,16.10
2010,07,13,13,16,16.20
2010,07,13,13,17,16.20
2010,07,13,13,18,16.20
2010,07,13,13,19,16.20
2010,07,13,13,20,16.20
2010,07,13,13,21,16.40
2010,07,13,13,22,16.60
2010,07,13,13,23,16.40
2010,07,13,13,24,16.40
2010,07,13,13,25,16.40
2010,07,13,13,26,16.40
2010,07,13,13,27,16.30
2010,07,13,13,28,16.40
2010,07,13,13,29,16.50
2010,07,13,13,30,16.60
2010,07,13,13,31,16.60
2010,07,13,13,32,16.60
2010,07,13,13,33,16.70
2010,07,13,13,34,16.80
2010,07,13,13,35,16.70
2010,07,13,13,36,16.50
2010,07,13,13,37,16.40
2010,07,13,13,38,16.30
2010,07,13,13,39,16.20
2010,07,13,13,40,16.20
2010,07,13,13,41,16.20
2010,07,13,13,42,16.20
2010,07,13,13,43,16.40
2010,07,13,13,44,16.60
2010,07,13,13,45,16.60
2010,07,13,13,46,16.50
2010,07,13,13,47,16.40
2010,07,13,13,48,16.40
2010,07,13,13,49,16.50
2010,07,13,13,50,16.60
2010,07,13,13,51,16.70
2010,07,13,13,52,16.70
2010,07,13,13,53,16.80
2010,07,13,13,54,16.70
2010,07,13,13,55,16.70
2010,07,13,13,56,16.70
2010,07,13,13,57,16.70
2010,07,13,13,58,16.70
2010,07,13,13,59,16.70
2010,07,13,14,00,16.70
2010,07,13,14,01,16.60
2010,07,13,14,02,16.60
2010,07,13,14,03,16.70
2010,07,13,14,04,16.80
2010,07,13,14,05,16.80
2010,07,13,14,06,16.70
2010,07,13,14,07,16.70
2010,07,13,14,08,16.70
2010,07,13,14,09,16.70
2010,07,13,14,10,16.80
2010,07,13,14,11,17.00
2010,07,13,14,12,17.20
2010,07,13,14,13,17.10
2010,07,13,14,14,17.00
2010,07,13,14,15,17.00
2010,07,13,14,16,17.00
2010,07,13,14,17,17.00
2010,07,13,14,18,17.00
2010,07,13,14,19,16.90
2010,07,13,14,20,16.90
2010,07,13,14,21,16.90
2010,07,13,14,22,16.90
2010,07,13,14,23,16.90
2010,07,13,14,24,16.80
2010,07,13,14,25,16.90
2010,07,13,14,26,17.00
2010,07,13,14,27,17.20
2010,07,13,14,28,17.30
2010,07,13,14,29,17.20
2010,07,13,14,30,17.10
2010,07,13,14,31,17.00
2010,07,13,14,32,17.00
2010,07,13,14,33,17.20
2010,07,13,14,34,17.20
2010,07,13,14,35,17.40
2010,07,13,14,36,17.50
2010,07,13,14,37,17.40
2010,07,13,14,38,17.30
2010,07,13,14,39,17.30
2010,07,13,14,40,17.20
2010,07,13,14,41,17.20
2010,07,13,14,42,17.20
2010,07,13,14,43,17.10
2010,07,13,14,44,16.90
2010,07,13,14,45,16.80
2010,07,13,14,46,16.70
2010,07,13,14,47,16.80
2010,07,13,14,48,16.90
2010,07,13,14,49,17.00
2010,07,13,14,50,17.10
2010,07,13,14,51,17.20
2010,07,13,14,52,17.10
2010,07,13,14,53,17.00
2010,07,13,14,54,17.00
2010,07,13,14,55,17.20
2010,07,13,14,56,17.30
2010,07,13,14,57,17.20
2010,07,13,14,58,17.30
2010,07,13,14,59,17.20
2010,07,13,15,00,17.00
2010,07,13,15,01,16.90
2010,07,13,15,02,16.90
2010,07,13,15,03,17.00
2010,07,13,15,04,17.00
2010,07,13,15,05,16.80
2010,07,13,15,06,16.90
2010,07,13,15,07,17.00
2010,07,13,15,08,17.20
2010,07,13,15,09,17.20
2010,07,13,15,10,17.20
2010,07,13,15,11,17.10
2010,07,13,15,12,17.10
2010,07,13,15,13,17.00
2010,07,13,15,14,17.00
2010,07,13,15,15,17.10
2010,07,13,15,16,17.10
2010,07,13,15,17,17.30
2010,07,13,15,18,17.30
2010,07,13,15,19,17.20
2010,07,13,15,20,17.10
2010,07,13,15,21,17.10
2010,07,13,15,22,17.20
2010,07,13,15,23,17.20
2010,07,13,15,24,17.10
2010,07,13,15,25,17.20
2010,07,13,15,26,17.30
2010,07,13,15,27,17.20
2010,07,13,15,28,17.20
2010,07,13,15,29,17.10
2010,07,13,15,30,17.10
2010,07,13,15,31,17.10
2010,07,13,15,32,17.00
2010,07,13,15,33,17.00
2010,07,13,15,34,17.10
2010,07,13,15,35,17.10
2010,07,13,15,36,17.20
2010,07,13,15,37,17.40
2010,07,13,15,38,17.50
2010,07,13,15,39,17.60
2010,07,13,15,40,17.60
2010,07,13,15,41,17.50
2010,07,13,15,42,17.50
2010,07,13,15,43,17.60
2010,07,13,15,44,17.70
2010,07,13,15,45,17.80
2010,07,13,15,46,17.70
2010,07,13,15,47,17.70
2010,07,13,15,48,17.70
2010,07,13,15,49,17.70
2010,07,13,15,50,17.60
2010,07,13,15,51,17.50
2010,07,13,15,52,17.50
2010,07,13,15,53,17.50
2010,07,13,15,54,17.60
2010,07,13,15,55,17.60
2010,07,13,15,56,17.60
2010,07,13,15,57,17.50
2010,07,13,15,58,17.50
2010,07,13,15,59,17.50
2010,07,13,16,00,17.40
2010,07,13,16,01,17.50
2010,07,13,16,02,17.50
2010,07,13,16,03,17.50
2010,07,13,16,04,17.50
2010,07,13,16,05,17.70
2010,07,13,16,06,17.70
2010,07,13,16,07,17.60
2010,07,13,16,08,17.50
2010,07,13,16,09,17.50
2010,07,13,16,10,17.60
2010,07,13,16,11,17.60
2010,07,13,16,12,17.70
2010,07,13,16,13,17.70
2010,07,13,16,14,17.80
2010,07,13,16,15,17.70
2010,07,13,16,16,17.60
2010,07,13,16,17,17.50
2010,07,13,16,18,17.40
2010,07,13,16,19,17.50
2010,07,13,16,20,17.50
2010,07,13,16,21,17.70
2010,07,13,16,22,17.90
2010,07,13,16,23,17.90
2010,07,13,16,24,18.00
2010,07,13,16,25,18.10
2010,07,13,16,26,18.20
2010,07,13,16,27,18.30
2010,07,13,16,28,18.50
2010,07,13,16,29,18.40
2010,07,13,16,30,18.30
2010,07,13,16,31,18.30
2010,07,13,16,32,18.40
2010,07,13,16,33,18.50
2010,07,13,16,34,18.60
2010,07,13,16,35,18.50
2010,07,13,16,36,18.50
2010,07,13,16,37,18.40
2010,07,13,16,38,18.20
2010,07,13,16,39,18.10
2010,07,13,16,40,18.00
2010,07,13,16,41,17.90
2010,07,13,16,42,17.90
2010,07,13,16,43,17.90
2010,07,13,16,44,17.80
2010,07,13,16,45,17.80
2010,07,13,16,46,17.70
2010,07,13,16,47,17.60
2010,07,13,16,48,17.50
2010,07,13,16,49,17.50
2010,07,13,16,50,17.50
2010,07,13,16,51,17.50
2010,07,13,16,52,17.50
2010,07,13,16,53,17.60
2010,07,13,16,54,17.60
2010,07,13,16,55,17.70
2010,07,13,16,56,17.90
2010,07,13,16,57,18.00
2010,07,13,16,58,17.90
2010,07,13,16,59,17.90
2010,07,13,17,00,17.90
2010,07,13,17,01,17.90
2010,07,13,17,02,18.10
2010,07,13,17,03,18.20
2010,07,13,17,04,18.30
2010,07,13,17,05,18.30
2010,07,13,17,06,18.40
2010,07,13,17,07,18.50
2010,07,13,17,08,18.60
2010,07,13,17,09,18.70
2010,07,13,17,10,18.70
2010,07,13,17,11,18.70
2010,07,13,17,12,18.70
2010,07,13,17,13,18.80
2010,07,13,17,14,18.70
2010,07,13,17,15,18.80
2010,07,13,17,16,18.90
2010,07,13,17,17,18.90
2010,07,13,17,18,18.90
2010,07,13,17,19,18.90
2010,07,13,17,20,18.90
2010,07,13,17,21,18.90
2010,07,13,17,22,18.90
2010,07,13,17,23,18.90
2010,07,13,17,24,19.00
2010,07,13,17,25,19.10
2010,07,13,17,26,19.10
2010,07,13,17,27,19.10
2010,07,13,17,28,19.20
2010,07,13,17,29,19.20
2010,07,13,17,30,19.10
2010,07,13,17,31,19.00
2010,07,13,17,32,18.90
2010,07,13,17,33,18.80
2010,07,13,17,34,18.60
2010,07,13,17,35,18.60
2010,07,13,17,36,18.60
2010,07,13,17,37,18.60
2010,07,13,17,38,18.50
2010,07,13,17,39,18.60
2010,07,13,17,40,18.70
2010,07,13,17,41,18.70
2010,07,13,17,42,18.70
2010,07,13,17,43,18.70
2010,07,13,17,44,18.80
2010,07,13,17,45,18.80
2010,07,13,17,46,18.80
2010,07,13,17,47,18.80
2010,07,13,17,48,18.90
2010,07,13,17,49,19.00
2010,07,13,17,50,19.10
2010,07,13,17,51,19.10
2010,07,13,17,52,19.20
2010,07,13,17,53,19.10
2010,07,13,17,54,19.10
2010,07,13,17,55,18.90
2010,07,13,17,56,18.90
2010,07,13,17,57,18.80
2010,07,13,17,58,18.70
2010,07,13,17,59,18.70
2010,07,13,18,00,18.70
2010,07,13,18,01,18.70
2010,07,13,18,02,18.70
2010,07,13,18,03,18.70
2010,07,13,18,04,18.70
2010,07,13,18,05,18.70
2010,07,13,18,06,18.80
2010,07,13,18,07,18.90
2010,07,13,18,08,19.00
2010,07,13,18,09,19.10
2010,07,13,18,10,19.10
2010,07,13,18,11,19.10
2010,07,13,18,12,19.10
2010,07,13,18,13,19.10
2010,07,13,18,14,19.00
2010,07,13,18,15,18.90
2010,07,13,18,16,18.80
2010,07,13,18,17,18.80
2010,07,13,18,18,18.80
2010,07,13,18,19,18.70
2010,07,13,18,20,18.60
2010,07,13,18,21,18.50
2010,07,13,18,22,18.50
2010,07,13,18,23,18.50
2010,07,13,18,24,18.40
2010,07,13,18,25,18.40
2010,07,13,18,26,18.50
2010,07,13,18,27,18.50
2010,07,13,18,28,18.60
2010,07,13,18,29,18.60
2010,07,13,18,30,18.60
2010,07,13,18,31,18.60
2010,07,13,18,32,18.70
2010,07,13,18,33,18.70
2010,07,13,18,34,18.70
2010,07,13,18,35,18.80
2010,07,13,18,36,18.80
2010,07,13,18,37,18.80
2010,07,13,18,38,18.90
2010,07,13,18,39,18.90
2010,07,13,18,40,18.90
2010,07,13,18,41,19.00
2010,07,13,18,42,19.10
2010,07,13,18,43,19.10
2010,07,13,18,44,19.10
2010,07,13,18,45,19.10
2010,07,13,18,46,19.20
2010,07,13,18,47,19.30
2010,07,13,18,48,19.40
2010,07,13,18,49,19.50
2010,07,13,18,50,19.60
2010,07,13,18,51,19.70
2010,07,13,18,52,19.90
2010,07,13,18,53,19.90
2010,07,13,18,54,19.80
2010,07,13,18,55,19.80
2010,07,13,18,56,19.80
2010,07,13,18,57,19.90
2010,07,13,18,58,19.90
2010,07,13,18,59,19.90
2010,07,13,19,00,19.90
2010,07,13,19,01,19.90
2010,07,13,19,02,19.90
2010,07,13,19,03,19.80
2010,07,13,19,04,19.70
2010,07,13,19,05,19.60
2010,07,13,19,06,19.50
2010,07,13,19,07,19.50
2010,07,13,19,08,19.50
2010,07,13,19,09,19.50
2010,07,13,19,10,19.50
2010,07,13,19,11,19.40
2010,07,13,19,12,19.40
2010,07,13,19,13,19.50
2010,07,13,19,14,19.50
2010,07,13,19,15,19.50
2010,07,13,19,16,19.50
2010,07,13,19,17,19.40
2010,07,13,19,18,19.30
2010,07,13,19,19,19.30
2010,07,13,19,20,19.30
2010,07,13,19,21,19.40
2010,07,13,19,22,19.40
2010,07,13,19,23,19.40
2010,07,13,19,24,19.50
2010,07,13,19,25,19.40
2010,07,13,19,26,19.30
2010,07,13,19,27,19.30
2010,07,13,19,28,19.20
2010,07,13,19,29,19.10
2010,07,13,19,30,19.10
2010,07,13,19,31,19.20
2010,07,13,19,32,19.30
2010,07,13,19,33,19.30
2010,07,13,19,34,19.40
2010,07,13,19,35,19.40
2010,07,13,19,36,19.40
2010,07,13,19,37,19.40
2010,07,13,19,38,19.40
2010,07,13,19,39,19.50
2010,07,13,19,40,19.50
2010,07,13,19,41,19.50
2010,07,13,19,42,19.50
2010,07,13,19,43,19.40
2010,07,13,19,44,19.30
2010,07,13,19,45,19.20
2010,07,13,19,46,19.10
2010,07,13,19,47,19.10
2010,07,13,19,48,19.00
2010,07,13,19,49,18.90
2010,07,13,19,50,18.90
2010,07,13,19,51,18.90
2010,07,13,19,52,18.80
2010,07,13,19,53,18.70
2010,07,13,19,54,18.70
2010,07,13,19,55,18.60
2010,07,13,19,56,18.50
2010,07,13,19,57,18.50
2010,07,13,19,58,18.50
2010,07,13,19,59,18.50
2010,07,13,20,00,18.50
2010,07,13,20,01,18.50
2010,07,13,20,02,18.50
2010,07,13,20,03,18.50
2010,07,13,20,04,18.50
2010,07,13,20,05,18.40
2010,07,13,20,06,18.40
2010,07,13,20,07,18.30
2010,07,13,20,08,18.30
2010,07,13,20,09,18.30
2010,07,13,20,10,18.30
2010,07,13,20,11,18.30
2010,07,13,20,12,18.20
2010,07,13,20,13,18.20
2010,07,13,20,14,18.20
2010,07,13,20,15,18.10
2010,07,13,20,16,18.10
2010,07,13,20,17,18.10
2010,07,13,20,18,18.10
2010,07,13,20,19,18.10
2010,07,13,20,20,18.10
2010,07,13,20,21,18.10
2010,07,13,20,22,18.20
2010,07,13,20,23,18.20
2010,07,13,20,24,18.20
2010,07,13,20,25,18.10
2010,07,13,20,26,18.10
2010,07,13,20,27,18.10
2010,07,13,20,28,18.10
2010,07,13,20,29,18.10
2010,07,13,20,30,18.10
2010,07,13,20,31,18.00
2010,07,13,20,32,17.90
2010,07,13,20,33,17.90
2010,07,13,20,34,17.90
2010,07,13,20,35,17.90
2010,07,13,20,36,17.90
2010,07,13,20,37,17.90
2010,07,13,20,38,17.90
2010,07,13,20,39,17.90
2010,07,13,20,40,17.90
2010,07,13,20,41,17.90
2010,07,13,20,42,17.80
2010,07,13,20,43,17.80
2010,07,13,20,44,17.70
2010,07,13,20,45,17.70
2010,07,13,20,46,17.60
2010,07,13,20,47,17.50
2010,07,13,20,48,17.50
2010,07,13,20,49,17.50
2010,07,13,20,50,17.40
2010,07,13,20,51,17.40
2010,07,13,20,52,17.30
2010,07,13,20,53,17.30
2010,07,13,20,54,17.30
2010,07,13,20,55,17.20
2010,07,13,20,56,17.20
2010,07,13,20,57,17.10
2010,07,13,20,58,17.10
2010,07,13,20,59,17.00
2010,07,13,21,00,17.00
2010,07,13,21,01,16.90
2010,07,13,21,02,16.90
2010,07,13,21,03,16.80
2010,07,13,21,04,16.80
2010,07,13,21,05,16.70
2010,07,13,21,06,16.70
2010,07,13,21,07,16.70
2010,07,13,21,08,16.70
2010,07,13,21,09,16.70
2010,07,13,21,10,16.70
2010,07,13,21,11,16.60
2010,07,13,21,12,16.60
2010,07,13,21,13,16.60
2010,07,13,21,14,16.50
2010,07,13,21,15,16.40
2010,07,13,21,16,16.40
2010,07,13,21,17,16.40
2010,07,13,21,18,16.40
2010,07,13,21,19,16.40
2010,07,13,21,20,16.40
2010,07,13,21,21,16.40
2010,07,13,21,22,16.30
2010,07,13,21,23,16.30
2010,07,13,21,24,16.30
2010,07,13,21,25,16.30
2010,07,13,21,26,16.20
2010,07,13,21,27,16.20
2010,07,13,21,28,16.20
2010,07,13,21,29,16.10
2010,07,13,21,30,16.10
2010,07,13,21,31,16.10
2010,07,13,21,32,16.10
2010,07,13,21,33,16.00
2010,07,13,21,34,15.90
2010,07,13,21,35,15.90
2010,07,13,21,36,15.80
2010,07,13,21,37,15.80
2010,07,13,21,38,15.80
2010,07,13,21,39,15.70
2010,07,13,21,40,15.70
2010,07,13,21,41,15.70
2010,07,13,21,42,15.60
2010,07,13,21,43,15.60
2010,07,13,21,44,15.60
2010,07,13,21,45,15.50
2010,07,13,21,46,15.50
2010,07,13,21,47,15.50
2010,07,13,21,48,15.50
2010,07,13,21,49,15.40
2010,07,13,21,50,15.40
2010,07,13,21,51,15.30
2010,07,13,21,52,15.30
2010,07,13,21,53,15.30
2010,07,13,21,54,15.30
2010,07,13,21,55,15.30
2010,07,13,21,56,15.30
2010,07,13,21,57,15.20
2010,07,13,21,58,15.20
2010,07,13,21,59,15.20
2010,07,13,22,00,15.10
2010,07,13,22,01,15.10
2010,07,13,22,02,15.10
2010,07,13,22,03,15.10
2010,07,13,22,04,15.10
2010,07,13,22,05,15.10
2010,07,13,22,06,15.00
2010,07,13,22,07,15.00
2010,07,13,22,08,15.00
2010,07,13,22,09,15.00
2010,07,13,22,10,15.00
2010,07,13,22,11,15.00
2010,07,13,22,12,15.00
2010,07,13,22,13,15.00
2010,07,13,22,14,15.00
2010,07,13,22,15,15.00
2010,07,13,22,16,14.90
2010,07,13,22,17,14.90
2010,07,13,22,18,14.90
2010,07,13,22,19,14.90
2010,07,13,22,20,14.90
2010,07,13,22,21,14.90
2010,07,13,22,22,14.90
2010,07,13,22,23,14.90
2010,07,13,22,24,14.90
2010,07,13,22,25,14.80
2010,07,13,22,26,14.80
2010,07,13,22,27,14.80
2010,07,13,22,28,14.80
2010,07,13,22,29,14.80
2010,07,13,22,30,14.80
2010,07,13,22,31,14.80
2010,07,13,22,32,14.80
2010,07,13,22,33,14.80
2010,07,13,22,34,14.80
2010,07,13,22,35,14.80
2010,07,13,22,36,14.80
2010,07,13,22,37,14.80
2010,07,13,22,38,14.80
2010,07,13,22,39,14.80
2010,07,13,22,40,14.80
2010,07,13,22,41,14.80
2010,07,13,22,42,14.80
2010,07,13,22,43,14.80
2010,07,13,22,44,14.80
2010,07,13,22,45,14.80
2010,07,13,22,46,14.80
2010,07,13,22,47,14.80
2010,07,13,22,48,14.70
2010,07,13,22,49,14.70
2010,07,13,22,50,14.70
2010,07,13,22,51,14.70
2010,07,13,22,52,14.70
2010,07,13,22,53,14.70
2010,07,13,22,54,14.70
2010,07,13,22,55,14.70
2010,07,13,22,56,14.70
2010,07,13,22,57,14.70
2010,07,13,22,58,14.70
2010,07,13,22,59,14.70
2010,07,13,23,00,14.70
2010,07,13,23,01,14.70
2010,07,13,23,02,14.70
2010,07,13,23,03,14.70
2010,07,13,23,04,14.70
2010,07,13,23,05,14.70
2010,07,13,23,06,14.70
2010,07,13,23,07,14.70
2010,07,13,23,08,14.70
2010,07,13,23,09,14.70
2010,07,13,23,10,14.60
2010,07,13,23,11,14.60
2010,07,13,23,12,14.60
2010,07,13,23,13,14.60
2010,07,13,23,14,14.60
2010,07,13,23,15,14.60
2010,07,13,23,16,14.60
2010,07,13,23,17,14.60
2010,07,13,23,18,14.60
2010,07,13,23,19,14.60
2010,07,13,23,20,14.60
2010,07,13,23,21,14.60
2010,07,13,23,22,14.60
2010,07,13,23,23,14.60
2010,07,13,23,24,14.60
2010,07,13,23,25,14.60
2010,07,13,23,26,14.60
2010,07,13,23,27,14.60
2010,07,13,23,28,14.60
2010,07,13,23,29,14.60
2010,07,13,23,30,14.60
2010,07,13,23,31,14.60
2010,07,13,23,32,14.50
2010,07,13,23,33,14.50
2010,07,13,23,34,14.50
2010,07,13,23,35,14.50
2010,07,13,23,36,14.60
2010,07,13,23,37,14.60
2010,07,13,23,38,14.60
2010,07,13,23,39,14.60
2010,07,13,23,40,14.60
2010,07,13,23,41,14.60
2010,07,13,23,42,14.60
2010,07,13,23,43,14.60
2010,07,13,23,44,14.60
2010,07,13,23,45,14.60
2010,07,13,23,46,14.60
2010,07,13,23,47,14.50
2010,07,13,23,48,14.50
2010,07,13,23,49,14.50
2010,07,13,23,50,14.50
2010,07,13,23,51,14.50
2010,07,13,23,52,14.50
2010,07,13,23,53,14.50
2010,07,13,23,54,14.50
2010,07,13,23,55,14.50
2010,07,13,23,56,14.50
2010,07,13,23,57,14.40
2010,07,13,23,58,14.40
2010,07,13,23,59,14.40
